星链-1718 (STARLINK-1718 )

导读

STARLINK-1718是美国SpaceX公司星链(Starlink)星座中的一颗低轨互联网通信卫星,于2020年10月18日发射入轨。它属于星链项目早期部署批次,旨在为全球提供高速低延迟宽带互联网服务,尤其覆盖偏远地区与网络基础设施薄弱区域。作为低轨卫星,它运行在近地轨道,可减少信号传输延迟,通过大规模组网实现全球覆盖,支撑卫星互联网的全球化服务布局,是SpaceX构建天基通信网络的重要组成单元。

Basic Information
目录编号:
46674
目录名称:
STARLINK-1718
国际标识:
2020-073E
轨道中心:
EARTH
卫星名称:
星链-1718
卫星全名:
星链-1718 (STARLINK-1718 )
卫星状态:
已陨落 最后检测时间 2026-08-24
发射日期:
2020-10-18 UTC
国别 :
美国 (US)
星等 :
--
Orbit Information
数据来源 国际轨道数据
星历时间: 2026-08-24T21:20:06+0800
2天前
查看轨道信息
半长轴: 6523.036km
偏心率: 0.0007519
轨道倾角: 53.017°
近地点辐角 266.214°
升交点赤经 109.591°
平近点角 93.805°
近地点: 139.994km
远地点: 149.804km
周期: 87.384分钟
每日圈数: 16.478899
Detailed Information
固有亮度:
5
最大亮度:
2.5
卫星平台:
Starlink V1.0
覆盖范围:
全球
运营商:
太空探索技术公司
运营商所在国:
美国
制造商(研发单位):
太空探索技术公司
制造商所在国:
美国
使用方式:
暂无
Satellite Introduction
星链(Starlink)计划是由太空探索技术公司(SpaceX)提出的一个巨型低轨卫星互联网星座项目,计划在2019年至2024年间在太空搭建由约1.2万颗卫星组成的“星链”网络,其中1584颗将部署在地球上空550千米处的近地轨道,并从2020年开始工作。该卫星仍在工作。